Vorticity
nan nan nan nan nan nan nan nan nan nan nan nan nan nan nan nan nan nan nan nan nan nan nan nan nan nan nan nan nan nan nan nan nan nan nan nan nan nan nan nan nan nan nan nan
nan 6 9 10 9 14 12 20 20 26 11 8 10 4 8 10 7 5 12 17 7 6 34 28 5 18 16 16 12 13 11 8 9 10 10 9 8 11 8 8 9 8 9 nan
nan 10 11 10 9 11 6 7 16 11 3 9 10 8 13 13 8 9 6 8 9 1 19 23 8 19 11 13 16 17 15 13 12 10 9 10 10 9 11 8 10 10 9 nan
nan 10 15 10 3 10 9 0 6 4 8 11 16 12 3 9 11 8 7 4 5 5 10 13 17 17 15 8 11 15 15 15 14 12 10 10 10 9 10 11 9 10 10 nan
nan 8 5 -1 4 10 8 4 7 7 5 4 7 16 9 7 9 9 11 5 5 4 11 5 10 9 16 14 12 10 12 14 13 11 10 9 9 9 9 11 9 10 10 nan
nan 11 16 0 5 13 14 4 4 8 9 7 10 9 10 8 5 5 7 10 7 5 6 9 12 12 11 13 7 7 13 14 13 11 10 9 9 10 9 11 11 9 11 nan
nan 14 12 6 11 15 11 8 9 8 7 13 11 8 12 9 9 7 5 6 8 11 8 6 7 13 7 8 12 10 8 13 15 13 12 13 11 10 12 11 12 13 11 nan
nan 14 8 11 16 15 6 6 6 7 9 10 8 8 8 13 13 14 11 6 9 11 8 9 9 9 10 10 8 10 12 13 11 10 11 11 11 14 16 14 7 8 16 nan
nan 10 4 8 9 6 13 11 6 4 10 9 9 11 10 11 9 10 16 16 8 8 9 9 7 7 8 13 12 7 7 9 9 9 7 9 15 13 9 10 11 11 10 nan
nan 4 4 12 6 8 8 10 9 11 9 9 11 9 13 10 8 10 8 12 16 14 9 9 9 7 8 7 8 13 13 8 7 8 10 10 9 8 8 8 10 9 7 nan
nan 3 9 7 3 7 10 12 11 12 9 9 11 12 13 12 13 13 9 7 9 11 14 11 11 11 7 8 10 9 11 13 14 13 11 10 10 8 7 9 9 8 10 nan
nan 7 9 2 11 13 12 10 10 10 12 13 12 12 13 13 13 11 10 10 10 10 11 12 13 13 11 10 8 9 11 9 10 13 14 13 9 12 13 16 13 6 6 nan
nan 10 11 12 7 11 10 9 9 9 11 10 12 13 14 13 10 10 13 9 8 12 13 13 13 13 11 10 9 9 9 8 12 11 9 11 13 13 12 8 10 17 15 nan
nan 9 15 17 9 5 7 8 11 13 13 11 11 11 12 10 10 11 11 11 9 12 15 13 11 11 13 13 11 10 11 10 9 10 11 11 13 10 8 11 14 16 18 nan
nan 12 16 9 7 9 9 7 9 12 13 15 14 12 11 11 11 10 11 11 15 14 12 14 11 10 10 12 14 12 10 9 9 11 11 10 10 11 11 13 11 9 12 nan
nan 14 12 8 8 9 7 9 15 14 11 12 12 13 13 13 12 13 13 15 16 13 13 10 10 12 12 12 11 12 16 13 7 8 10 10 10 10 11 12 11 12 8 nan
nan 14 8 8 9 10 8 9 12 14 13 11 12 13 14 16 16 14 13 17 18 14 14 12 13 15 13 12 11 11 12 17 14 9 9 10 9 10 10 9 11 11 12 nan
nan 8 9 11 10 9 8 7 5 11 15 13 13 14 13 14 14 15 15 19 18 16 9 7 14 15 16 13 12 13 11 11 12 11 11 13 10 9 7 10 11 10 10 nan
nan 7 7 13 19 14 8 8 7 8 11 14 14 15 14 12 12 12 15 16 14 14 9 6 11 17 16 13 14 15 11 11 11 10 9 12 17 14 12 10 10 12 13 nan
nan 7 8 17 18 8 7 9 11 9 9 11 10 10 12 13 14 13 14 14 12 9 7 11 15 17 17 14 15 13 11 11 12 13 11 8 12 14 19 14 13 14 15 nan
nan 9 9 12 15 14 11 11 11 8 10 9 8 7 7 12 14 12 14 10 7 11 13 17 20 16 13 9 16 18 17 15 14 11 12 13 13 14 15 16 16 11 13 nan
nan 7 9 12 11 13 13 19 13 7 8 8 8 7 5 7 14 16 11 11 6 11 21 15 13 24 27 17 14 13 14 16 17 16 15 18 13 11 13 13 14 13 11 nan
nan 9 8 9 13 10 11 14 13 14 7 7 6 8 12 8 7 9 7 11 13 15 17 7 9 22 28 26 17 13 12 14 15 16 15 16 16 14 11 11 10 7 7 nan
nan 9 11 10 12 10 13 11 12 17 13 9 8 9 10 9 9 10 9 3 11 20 14 10 10 15 18 16 13 13 12 13 14 13 12 14 15 14 12 13 15 17 12 nan
nan 10 13 10 13 15 8 10 11 9 19 19 12 15 11 10 9 7 9 7 9 15 8 4 11 16 15 13 12 13 13 12 14 14 13 13 13 14 14 13 15 14 15 nan
nan 10 14 14 14 12 11 10 10 9 10 14 18 16 11 13 11 9 6 8 7 10 12 9 8 8 10 11 11 11 12 12 13 13 13 12 13 13 13 14 13 13 14 nan
nan nan nan nan nan nan nan nan nan nan nan nan nan nan nan nan nan nan nan nan nan nan nan nan nan nan nan nan nan nan nan nan nan nan nan nan nan nan nan nan nan nan nan nan
CAPE
0 0 0 0 0 0 0 0 0 0 104 769 603 392 15 0 2 75 119 0 3 129 0 984 1788 1669 2093 2190 2242 2627 2616 2475 2492 2504 2531 2331 2418 2201 2287 2034 1600 1276 1256 1807
0 0 0 0 0 0 0 48 74 20 395 219 398 21 7 0 3 86 207 0 0 0 25 538 3351 2485 3081 2332 2356 2722 2679 2837 2477 2705 2579 2609 2585 2517 2164 2419 1844 1556 1213 934
0 0 0 0 0 0 0 15 0 26 23 6 101 0 2 0 0 53 17 71 34 90 14 1201 2250 3425 3526 3518 3960 3005 3039 2991 2937 2987 2910 3037 2888 2995 2571 2318 2612 2452 2222 1864
0 0 0 0 0 0 0 0 3 0 0 0 61 9 0 237 151 172 54 147 91 26 0 146 1124 3068 3343 3340 3728 4012 4339 3654 3706 3489 3329 3374 3160 3063 3113 2696 2779 2465 2355 2253
0 0 0 0 0 0 0 21 44 32 9 0 0 103 303 83 421 402 234 128 18 18 4 202 122 1360 2017 3064 3585 3476 3649 3987 3947 3684 3604 3456 3270 3263 3178 3209 2959 2972 2787 2594
0 0 0 0 0 0 0 1 18 1 9 0 23 22 50 251 112 64 44 207 87 28 0 8 744 401 2146 2399 2495 2813 3136 3535 3482 3411 3357 3571 3423 3357 3322 3172 3094 2921 2909 2770
0 0 0 0 0 0 4 69 101 0 0 4 79 130 38 359 179 55 34 18 1 57 16 2 840 972 1878 2465 2386 2546 2870 2884 2898 2813 3001 3506 3521 3440 3331 3156 2972 2661 2381 1621
0 0 1 0 0 2 0 0 0 0 0 0 11 18 29 25 5 69 94 41 17 96 28 75 705 1233 1150 2113 2424 2437 2801 2347 2214 2442 2825 2912 2772 2794 2300 2558 2003 504 294 94
0 1 0 0 0 0 0 0 0 0 0 9 25 28 19 27 3 1 1 2 0 0 0 167 391 468 974 1670 2007 1856 2380 1984 1831 1806 1672 1704 2061 1329 880 958 367 288 392 185
0 0 0 0 0 0 0 0 0 0 8 0 0 0 7 20 36 21 1 21 13 14 6 67 272 234 436 355 502 822 1902 2066 2130 2316 1840 1588 1314 619 273 145 19 53 18 37
0 0 0 0 0 0 0 0 0 0 0 4 5 3 8 18 6 10 2 25 12 2 30 66 565 305 364 139 615 148 435 1287 1814 2192 1947 1845 1646 1183 665 289 35 9 14 14
0 0 0 0 0 15 13 9 1 0 0 0 8 7 17 16 22 20 5 22 20 6 0 158 81 580 658 803 441 145 369 606 906 951 1298 1533 1552 1335 925 1002 300 17 3 2
0 0 0 13 1 0 0 0 0 0 0 0 0 3 3 1 0 1 0 11 25 24 13 8 230 574 579 745 920 682 667 422 295 227 215 269 1056 1737 1423 290 0 2 0 2
0 0 0 1 0 0 0 0 0 2 8 3 6 1 4 2 0 0 0 0 0 1 39 92 29 69 127 275 690 773 779 817 533 686 419 78 1 222 305 757 313 89 0 0
0 0 0 0 0 0 0 0 1 8 9 12 11 12 9 7 5 4 0 0 0 1 7 69 153 60 29 315 486 498 811 888 706 552 331 131 0 0 29 3 264 516 20 0
0 0 0 0 0 1 0 0 4 13 5 7 10 9 7 7 7 5 1 1 6 2 2 10 5 76 30 9 11 358 375 481 854 765 443 194 83 28 12 0 0 0 215 56
0 0 0 0 5 1 0 0 0 6 9 11 10 9 7 5 3 4 2 1 17 25 2 2 43 90 262 321 122 182 401 435 323 274 416 283 97 10 0 0 0 0 0 5
0 0 0 0 6 2 1 0 0 0 7 9 8 8 8 10 8 5 6 1 9 2 13 1 3 3 28 118 159 94 313 425 286 175 95 114 153 59 3 0 0 0 0 0
0 0 0 0 7 8 1 0 0 0 3 5 4 6 10 7 7 9 4 6 3 3 3 3 3 1 0 68 172 185 233 267 306 370 231 118 38 97 136 30 2 0 0 0
0 0 0 0 2 0 0 0 6 0 0 2 5 5 8 8 8 9 7 7 7 9 5 1 3 2 2 34 128 70 159 186 96 103 245 86 78 102 7 9 10 4 4 36
0 0 0 0 5 7 13 6 6 0 0 0 0 0 1 4 9 9 7 4 5 5 5 7 5 4 3 4 1 59 173 149 121 77 41 93 125 35 24 40 67 106 143 176
0 0 0 0 0 0 6 0 12 0 0 0 0 0 0 0 0 3 5 9 8 8 6 5 4 1 1 2 2 14 26 76 72 42 75 95 18 83 103 63 28 32 3 82
0 0 0 0 0 0 0 0 1 2 2 0 0 0 0 0 0 2 2 6 6 7 7 8 10 7 5 4 6 7 5 3 1 9 0 17 9 13 3 7 0 0 0 19
0 0 0 0 0 0 0 13 0 9 24 6 0 0 0 0 0 0 0 0 0 4 6 9 10 11 6 6 5 7 8 5 7 5 4 2 5 3 4 2 0 0 0 0
0 0 0 0 0 0 0 0 0 0 0 45 26 24 0 0 0 0 0 0 0 1 3 4 12 7 6 9 8 7 9 9 3 8 7 5 4 3 5 5 5 1 2 4
0 0 0 0 0 0 0 0 0 0 0 0 26 20 12 1 0 0 0 0 0 0 0 0 0 0 1 2 3 5 2 2 5 5 5 6 6 5 5 5 7 6 4 3
36 2 0 0 0 0 0 0 0 0 0 0 0 2 23 32 0 0 0 0 0 0 0 0 0 0 0 0 0 0 0 0 0 1 3 4 4 4 5 6 5 5 4 5